FW2367 Weather Reports


time (UTC)temp
C
wind
direction
speed
KPH
gust
KPH
rain 1hr
cm
rain 24hr
cm
rain mn
cm
humidity
%
barometer
mb
20260904102532 18 180 0.0 0.0 0.00 0.25 0.00 97 1012.7
20260904101532 18 180 0.0 0.0 0.00 0.25 0.00 96 1012.7
20260904095532 18 180 0.0 0.0 0.00 0.28 0.00 97 1012.8
20260904094535 18 180 0.0 0.0 0.00 0.28 0.00 96 1012.7
20260904093532 18 180 0.0 0.0 0.00 0.28 0.00 96 1012.7
20260904092534 18 180 0.0 0.0 0.00 0.28 0.00 96 1012.6
20260904091631 18 180 0.0 0.0 0.00 0.28 0.00 97 1012.6
20260904090632 18 180 0.0 0.0 0.00 0.28 0.00 97 1012.8
20260904085633 18 180 0.0 0.0 0.00 0.30 0.00 96 1012.7
20260904084631 18 180 0.0 0.0 0.00 0.43 0.00 97 1012.6
20260904083633 18 180 0.0 0.0 0.00 0.84 0.00 97 1012.6
20260904081731 18 180 0.0 0.0 0.00 1.02 0.00 96 1012.9
20260904080732 18 180 0.0 0.0 0.00 1.04 0.00 97 1012.9
20260904075733 18 180 0.0 0.0 0.00 1.04 0.00 97 1012.9
20260904074748 18 180 0.0 0.0 0.00 1.04 0.00 97 1013.0
20260904072832 18 180 0.0 0.0 0.00 1.04 0.00 97 1013.4
20260904071832 18 180 0.0 0.0 0.00 1.04 0.00 96 1013.2
20260904065934 18 180 0.0 0.0 0.00 1.04 0.00 95 1013.3
20260904064933 18 180 0.0 0.0 0.00 1.04 0.00 96 1013.3
20260904064832 18 180 0.0 0.0 0.00 1.04 0.00 96 1013.3
20260904063851 18 180 0.0 0.0 0.00 1.04 0.00 96 1013.4
20260904060931 18 180 0.0 0.0 0.00 1.04 0.00 95 1013.5
20260904054934 19 180 0.0 0.0 0.00 1.04 0.00 96 1013.9
20260904053034 19 180 0.0 0.0 0.00 1.04 0.00 95 1014.1
20260904045133 18 180 0.0 0.0 0.00 1.04 0.00 95 1014.4
20260904044134 18 92 0.0 0.0 0.00 1.04 0.00 94 1014.4
20260904043130 18 180 0.0 0.0 0.00 1.04 0.00 94 1014.6
20260904041231 18 180 0.0 0.0 0.00 1.04 0.00 94 1014.7
20260904040232 18 180 0.0 0.0 0.00 1.04 0.00 94 1014.6
20260904035240 18 180 0.0 0.0 0.00 1.04 1.04 93 1014.6
20260904034238 18 180 0.0 0.0 0.00 1.04 1.04 93 1014.7
20260904032239 19 180 0.0 0.0 0.00 1.04 1.04 93 1014.6
20260904031241 19 180 0.0 0.0 0.00 1.04 1.04 93 1014.7
20260904030338 19 180 0.0 0.0 0.00 1.04 1.04 92 1014.7
20260904025339 19 180 0.0 0.0 0.00 1.04 1.04 91 1014.8
20260904024341 19 180 0.0 0.0 0.00 1.04 1.04 92 1014.9
20260904021341 19 180 0.0 0.0 0.00 1.04 1.04 91 1015.2
20260904020356 19 180 0.0 0.0 0.00 1.04 1.04 90 1015.3
20260904015340 19 180 0.0 0.0 0.00 1.04 1.04 91 1015.1
20260904013340 19 93 0.0 0.0 0.00 1.04 1.04 91 1015.3
20260904012340 20 121 0.0 0.0 0.00 1.04 1.04 91 1015.5
20260904011340 20 90 0.0 0.0 0.00 1.04 1.04 90 1015.4
20260904005340 20 90 0.0 0.0 0.00 1.04 1.04 89 1015.2
20260904004342 20 90 0.0 0.0 0.00 1.04 1.04 90 1015.0
20260904003438 20 90 0.0 0.0 0.00 1.04 1.04 89 1014.9
20260904003337 20 90 0.0 0.0 0.00 1.04 1.04 89 1014.8
20260904001339 20 180 0.0 0.0 0.00 1.04 1.04 88 1014.7
20260904000340 20 90 0.0 0.0 0.00 1.04 1.04 87 1014.9
20260904000240 20 90 0.0 0.0 0.00 1.04 1.04 87 1014.8
20260903235237 20 90 0.0 0.0 0.00 1.04 1.04 87 1014.7
20260903234241 20 180 0.0 0.0 0.00 1.04 1.04 86 1014.5
20260903233240 20 180 0.0 0.0 0.00 1.04 1.04 86 1014.7
20260903231337 21 156 0.0 0.0 0.00 1.04 1.04 83 1014.7
20260903230339 21 180 0.0 0.0 0.00 1.04 1.04 83 1014.3
20260903225338 21 180 0.0 0.0 0.00 1.04 1.04 82 1014.4
20260903224355 21 180 0.0 0.0 0.00 1.04 1.04 82 1014.4
20260903223340 21 180 0.0 0.0 0.00 1.04 1.04 81 1014.8
20260903223238 21 180 0.0 0.0 0.00 1.04 1.04 81 1014.8
20260903222253 22 180 0.0 0.0 0.00 1.04 1.04 78 1014.8
20260903221338 22 180 0.0 1.6 0.00 1.04 1.04 76 1014.9
20260903220437 23 180 0.0 0.0 0.00 1.04 1.04 75 1014.8
20260903215441 23 180 0.0 1.6 0.00 1.04 1.04 74 1014.7
20260903214440 24 180 0.0 0.0 0.00 1.04 1.04 74 1014.6
20260903213454 24 180 0.0 3.2 0.00 1.04 1.04 73 1014.7
20260903212538 24 180 0.0 4.8 0.00 1.04 1.04 73 1014.6
20260903211541 25 180 0.0 0.0 0.00 1.04 1.04 72 1014.7
20260903210638 25 180 0.0 0.0 0.00 1.04 1.04 74 1014.6
20260903205638 23 180 0.0 0.0 0.00 1.04 1.04 76 1014.5
20260903204640 23 180 0.0 0.0 0.00 1.04 1.04 76 1014.5
20260903203738 23 180 0.0 0.0 0.00 1.04 1.04 78 1014.7
20260903202837 23 90 0.0 0.0 0.00 1.04 1.04 78 1014.7
20260903201840 23 178 0.0 0.0 0.00 1.04 1.04 78 1014.9
20260903200840 23 180 0.0 0.0 0.00 1.04 1.04 79 1014.9
20260903195838 23 180 0.0 4.8 0.00 1.04 1.04 79 1015.1
20260903194838 23 180 0.0 0.0 0.00 1.04 1.04 81 1015.2
20260903193840 22 180 0.0 0.0 0.00 1.04 1.04 82 1015.2
20260903192938 22 180 0.0 0.0 0.00 1.04 1.04 83 1015.3
20260903191937 22 180 0.0 3.2 0.00 1.04 1.04 83 1015.5
20260903190939 22 180 0.0 0.0 0.00 1.04 1.04 82 1015.5
20260903185938 22 180 0.0 0.0 0.00 1.04 1.04 83 1015.7
20260903184839 22 180 0.0 0.0 0.00 1.04 1.04 82 1015.7
20260903183838 22 180 0.0 0.0 0.00 1.04 1.04 81 1015.8
20260903182839 23 180 0.0 0.0 0.00 1.04 1.04 79 1016.0
20260903181938 23 90 0.0 0.0 0.00 1.04 1.04 79 1016.1
20260903181839 23 90 0.0 0.0 0.00 1.04 1.04 78 1016.1
20260903180839 23 180 0.0 0.0 0.00 1.04 1.04 78 1016.1
20260903175839 24 180 0.0 0.0 0.00 1.04 1.04 77 1016.1
20260903174838 24 180 0.0 0.0 0.00 1.04 1.04 78 1016.1
20260903173839 24 180 0.0 0.0 0.00 1.04 1.04 78 1016.2
20260903172938 24 180 0.0 0.0 0.00 1.04 1.04 78 1016.2
20260903172037 24 180 0.0 0.0 0.00 1.04 1.04 79 1016.2
20260903171040 24 180 0.0 0.0 0.00 1.04 1.04 78 1016.1
20260903170137 24 180 0.0 1.6 0.00 1.04 1.04 80 1016.1
20260903165140 24 180 0.0 0.0 0.00 1.04 1.04 83 1015.9
20260903161357 21 180 0.0 0.0 0.00 1.04 1.04 93 1016.1
20260903161238 21 180 0.0 0.0 0.00 1.04 1.04 94 1016.1
20260903160255 21 180 0.0 0.0 0.00 1.04 1.04 94 1016.2
20260903155239 21 180 0.0 0.0 0.00 1.04 1.04 95 1016.5
20260903153339 20 180 0.0 0.0 0.00 1.04 1.04 95 1016.7
20260903153237 20 180 0.0 0.0 0.00 1.04 1.04 95 1016.7
20260903152239 20 180 0.0 0.0 0.00 1.04 1.04 96 1016.8
20260903151254 20 180 0.0 0.0 0.00 1.04 1.04 96 1016.8
20260903150255 20 180 0.0 0.0 0.00 1.04 1.04 96 1017.0
20260903145240 19 180 0.0 0.0 0.00 1.04 1.04 95 1017.2
20260903144239 19 180 0.0 0.0 0.00 1.04 1.04 96 1017.1
20260903143239 18 180 0.0 0.0 0.00 1.04 1.04 96 1017.2
20260903142241 18 180 0.0 0.0 0.00 1.04 1.04 97 1017.3
20260903141337 18 180 0.0 0.0 0.00 1.04 1.04 97 1017.4
20260903140356 18 180 0.0 0.0 0.00 1.04 1.04 96 1017.6
20260903135438 18 180 0.0 0.0 0.00 1.04 1.04 97 1017.7
20260903134440 18 180 0.0 0.0 0.00 1.04 1.04 97 1017.8
20260903133537 18 180 0.0 0.0 0.00 1.04 1.04 96 1017.7
20260903131539 18 180 0.0 0.0 0.00 1.04 1.04 97 1017.5
20260903130538 18 180 0.0 0.0 0.00 1.04 1.04 97 1017.5
20260903125538 17 180 0.0 0.0 0.00 1.04 1.04 97 1017.8
20260903124637 17 180 0.0 0.0 0.03 1.04 1.04 95 1017.8
20260903123638 17 180 0.0 0.0 0.03 1.04 1.04 96 1018.0
20260903122737 17 180 0.0 0.0 0.05 1.04 1.04 95 1018.0
20260903120840 17 180 0.0 0.0 0.10 1.04 1.04 96 1018.3
20260903113838 17 180 0.0 0.0 0.23 1.02 1.02 95 1018.7
20260903112838 17 180 0.0 0.0 0.20 0.99 0.99 96 1018.6
20260903110939 17 180 0.0 0.0 0.20 0.97 0.94 96 1018.6
20260903105038 17 180 0.0 0.0 0.10 0.86 0.86 94 1018.1
20260903104137 17 180 0.0 0.0 0.05 0.81 0.79 95 1018.2
20260903103236 17 180 0.0 0.0 0.03 0.79 0.79 94 1018.2